Regional Weather Roundup
Issued by NWS Raleigh/Durham, NC

Current Version | Previous Version | Text Only | Print | Product List | Glossary On
Versions: 1 2 3 4 5 6 7 8 9 10 11 12 13 14 15 16 17 18 19 20 21 22 23 24 25 26 27 28 29 30 31 32 33 34 35 36 37 38 39 40 41 42 43 44 45 46 47 48 49 50
000 ASUS42 KRAH 041610 RWRRAH NORTH CAROLINA WEATHER ROUNDUP NATIONAL WEATHER SERVICE RALEIGH NC 1200 PM EDT FRI SEP 04 2015 NOTE: "FAIR" INDICATES FEW OR NO CLOUDS BELOW 12,000 FEET WITH NO SIGNIFICANT WEATHER AND/OR OBSTRUCTIONS TO VISIBILITY. NCZ001-053-055-056-065-067-041700- WESTERN NORTH CAROLINA CITY SKY/WX TMP DP RH WIND PRES REMARKS ASHEVILLE SUNNY 84 63 49 N6 30.13S JEFFERSON SUNNY 77 60 54 NE6 30.19R MORGANTON SUNNY 86 62 44 NE3 30.11F HICKORY SUNNY 86 65 49 NE5 30.06S RUTHERFORDTON SUNNY 87 62 42 N8 30.06F MOUNT AIRY MOSUNNY 84 73 68 CALM 30.08S BOONE MOSUNNY 78 58 50 N8 30.19R $$ NCZ021-022-025-041-071-084-088-041700- CENTRAL NORTH CAROLINA CITY SKY/WX TMP DP RH WIND PRES REMARKS CHARLOTTE MOSUNNY 89 67 47 N6 30.04S GREENSBORO SUNNY 86 67 52 NE8 30.04S WINSTON-SALEM SUNNY 87 67 51 N7 30.06S RALEIGH-DURHAM MOSUNNY 88 70 55 CALM 30.02S FORT BRAGG SUNNY 89 68 50 CALM 29.99S FAYETTEVILLE SUNNY 90 69 50 VRB3 30.00R BURLINGTON SUNNY 87 71 58 NE7 30.03S LAURINBURG MOSUNNY 90 66 45 N7 30.00S $$ NCZ011-015-027-028-043-044-047-080-103-041700- NORTHEASTERN NORTH CAROLINA CITY SKY/WX TMP DP RH WIND PRES REMARKS ROCKY MT-WILSO SUNNY 90 69 50 N5 30.01R GREENVILLE SUNNY 88 72 58 NW3 30.01S WASHINGTON SUNNY 86 72 61 CALM 29.99S ELIZABETH CITY SUNNY 88 73 61 NE7 29.98S HX 95 MANTEO SUNNY 85 74 70 N8 29.98S CAPE HATTERAS SUNNY 85 75 72 VRB6 29.98R $$ NCZ078-087-090-091-093-098-101-041700- SOUTHEASTERN NORTH CAROLINA CITY SKY/WX TMP DP RH WIND PRES REMARKS LUMBERTON SUNNY 92 68 45 N6 29.99R HX 96 GOLDSBORO MOSUNNY 89 71 54 N5 29.99R HX 95 KINSTON SUNNY 88 70 55 N3 30.00S KENANSVILLE N/A 87 67 52 CALM 30.01R NEW BERN MOSUNNY 87 70 56 NE6 30.00S CHERRY POINT SUNNY 89 72 56 N6 30.00R HX 96 BEAUFORT MOSUNNY 86 73 65 NW8 29.98S JACKSONVILLE SUNNY 87 70 56 VRB3 29.98S WILMINGTON SUNNY 89 70 53 N3 29.99R $$

USA.gov is the U.S. government's official web portal to all federal, state and local government web resources and services.